When you browse on this site, cookies collect data to enhance your experience and personalize the content and advertising you see.
Visit our Privacy Policy to learn more. By continuing to use the site, you agree to this use of cookies and data.
  • In Czech Republic
  • List of Countries
  • For 7 days
  • Water Temperature
  • Satellite Maps
  • Weather Map
  • Weather Widgets
  • user-avatar
    Login

    Hourly Weather Kabul

    Today, 23 March, Saturday

    Time Temperature Precipitation Wind Pressure Humidity
    00:00 +5°C° 0 mm 2 mps 608 mmHg 56%
    01:00 +4°C° 0 mm 2 mps 608 mmHg 58%
    02:00 +5°C° 0 mm 1 mps 608 mmHg 59%
    03:00 +5°C° 0 mm 1 mps 608 mmHg 60%
    04:00 +4°C° 0 mm 1 mps 608 mmHg 61%
    05:00 +4°C° 0 mm 1 mps 606 mmHg 65%
    06:00 +4°C° 0 mm 1 mps 607 mmHg 64%
    07:00 +5°C° 0 mm 1 mps 607 mmHg 63%
    08:00 +5°C° 0 mm 1 mps 607 mmHg 63%
    09:00 +6°C° 0.1 mm 1 mps 608 mmHg 60%
    10:00 +7°C° 0.1 mm 1 mps 608 mmHg 58%
    11:00 +8°C° 0 mm 2 mps 609 mmHg 55%
    12:00 +9°C° 0 mm 1 mps 609 mmHg 53%
    13:00 +10°C° 0 mm 1 mps 609 mmHg 50%
    14:00 +11°C° 0 mm 1 mps 609 mmHg 48%
    15:00 +11°C° 0 mm 1 mps 609 mmHg 46%
    16:00 +11°C° 0 mm 1 mps 609 mmHg 45%
    17:00 +12°C° 0 mm 1 mps 609 mmHg 44%
    18:00 +10°C° 0 mm 1 mps 609 mmHg 45%
    19:00 +9°C° 0 mm 1 mps 609 mmHg 47%
    20:00 +8°C° 0 mm 1 mps 609 mmHg 49%
    21:00 +8°C° 0 mm 1 mps 609 mmHg 50%
    22:00 +7°C° 0 mm 1 mps 609 mmHg 50%
    23:00 +7°C° 0 mm 1 mps 609 mmHg 51%

    Tomorrow, 24 March, Sunday

    Time Temperature Precipitation Wind Pressure Humidity
    00:00 +6°C° 0 mm 1 mps 609 mmHg 51%
    01:00 +6°C° 0 mm 1 mps 609 mmHg 51%
    02:00 +6°C° 0 mm 1 mps 609 mmHg 51%
    03:00 +5°C° 0 mm 1 mps 609 mmHg 51%
    04:00 +5°C° 0 mm 1 mps 609 mmHg 51%
    05:00 +5°C° 0 mm 1 mps 608 mmHg 51%
    06:00 +5°C° 0 mm 1 mps 609 mmHg 48%
    07:00 +6°C° 0 mm 1 mps 609 mmHg 46%
    08:00 +7°C° 0 mm 1 mps 609 mmHg 44%
    09:00 +8°C° 0 mm 1 mps 609 mmHg 40%
    10:00 +9°C° 0 mm 1 mps 610 mmHg 37%
    11:00 +10°C° 0 mm 1 mps 610 mmHg 34%
    12:00 +11°C° 0 mm 1 mps 610 mmHg 32%
    13:00 +12°C° 0 mm 1 mps 610 mmHg 30%
    14:00 +13°C° 0 mm 1 mps 610 mmHg 28%
    15:00 +13°C° 0 mm 1 mps 610 mmHg 28%
    16:00 +13°C° 0 mm 1 mps 609 mmHg 28%
    17:00 +13°C° 0 mm 1 mps 609 mmHg 28%
    18:00 +12°C° 0 mm 1 mps 609 mmHg 31%
    19:00 +11°C° 0 mm 1 mps 609 mmHg 35%
    20:00 +9°C° 0 mm 1 mps 609 mmHg 38%
    21:00 +9°C° 0 mm 1 mps 609 mmHg 40%
    22:00 +8°C° 0 mm 1 mps 609 mmHg 41%
    23:00 +8°C° 0 mm 1 mps 609 mmHg 43%

    Day after tomorrow, 25 March, Monday

    Time Temperature Precipitation Wind Pressure Humidity
    00:00 +7°C° 0 mm 1 mps 609 mmHg 44%
    01:00 +7°C° 0 mm 1 mps 609 mmHg 45%
    02:00 +6°C° 0 mm 1 mps 608 mmHg 47%
    03:00 +6°C° 0 mm 1 mps 608 mmHg 47%
    04:00 +6°C° 0 mm 1 mps 608 mmHg 48%
    05:00 +4°C° 0 mm 2 mps 608 mmHg 48%
    06:00 +5°C° 0 mm 2 mps 608 mmHg 45%
    07:00 +6°C° 0 mm 2 mps 609 mmHg 43%
    08:00 +6°C° 0 mm 2 mps 609 mmHg 40%
    09:00 +8°C° 0 mm 2 mps 610 mmHg 36%
    10:00 +9°C° 0 mm 2 mps 610 mmHg 32%
    11:00 +12°C° 0 mm 1 mps 610 mmHg 28%
    12:00 +13°C° 0 mm 2 mps 611 mmHg 27%
    13:00 +14°C° 0 mm 2 mps 611 mmHg 26%
    14:00 +15°C° 0 mm 2 mps 611 mmHg 24%
    15:00 +14°C° 0 mm 3 mps 611 mmHg 25%
    16:00 +14°C° 0 mm 3 mps 611 mmHg 26%
    17:00 +14°C° 0 mm 3 mps 610 mmHg 27%
    18:00 +14°C° 0 mm 2 mps 610 mmHg 31%
    19:00 +13°C° 0 mm 2 mps 610 mmHg 35%
    20:00 +10°C° 0 mm 2 mps 610 mmHg 39%
    21:00 +10°C° 0 mm 2 mps 610 mmHg 39%
    22:00 +9°C° 0 mm 2 mps 610 mmHg 40%
    23:00 +8°C° 0 mm 2 mps 610 mmHg 41%

    26 March, Tuesday

    Time Temperature Precipitation Wind Pressure Humidity
    00:00 +8°C° 0 mm 2 mps 610 mmHg 41%
    01:00 +8°C° 0 mm 2 mps 609 mmHg 41%
    02:00 +7°C° 0 mm 2 mps 609 mmHg 41%
    03:00 +7°C° 0 mm 2 mps 609 mmHg 41%
    04:00 +7°C° 0 mm 2 mps 609 mmHg 40%
    05:00 +6°C° 0 mm 2 mps 609 mmHg 39%
    06:00 +7°C° 0 mm 2 mps 609 mmHg 37%
    07:00 +8°C° 0 mm 2 mps 610 mmHg 35%
    08:00 +9°C° 0 mm 2 mps 610 mmHg 33%
    09:00 +12°C° 0 mm 2 mps 611 mmHg 29%
    10:00 +13°C° 0 mm 2 mps 611 mmHg 26%
    11:00 +15°C° 0 mm 2 mps 612 mmHg 22%
    12:00 +15°C° 0 mm 2 mps 612 mmHg 22%
    13:00 +16°C° 0 mm 2 mps 612 mmHg 23%
    14:00 +17°C° 0 mm 2 mps 612 mmHg 23%
    15:00 +16°C° 0 mm 2 mps 612 mmHg 26%
    16:00 +16°C° 0 mm 2 mps 612 mmHg 28%
    17:00 +16°C° 0 mm 1 mps 611 mmHg 30%
    18:00 +15°C° 0.1 mm 1 mps 611 mmHg 35%
    19:00 +14°C° 0.1 mm 1 mps 612 mmHg 41%
    20:00 +13°C° 0.1 mm 1 mps 612 mmHg 46%
    21:00 +12°C° 0 mm 1 mps 611 mmHg 49%
    22:00 +11°C° 0 mm 1 mps 611 mmHg 52%
    23:00 +11°C° 0 mm 1 mps 611 mmHg 55%

    27 March, Wednesday

    Time Temperature Precipitation Wind Pressure Humidity
    00:00 +10°C° 0 mm 1 mps 611 mmHg 56%
    01:00 +10°C° 0 mm 1 mps 610 mmHg 57%
    02:00 +9°C° 0 mm 1 mps 610 mmHg 59%
    03:00 +9°C° 0 mm 1 mps 609 mmHg 60%
    04:00 +9°C° 0 mm 1 mps 609 mmHg 61%
    05:00 +8°C° 0 mm 1 mps 609 mmHg 62%
    06:00 +9°C° 0 mm 1 mps 610 mmHg 59%
    07:00 +10°C° 0 mm 1 mps 610 mmHg 56%
    08:00 +11°C° 0 mm 1 mps 611 mmHg 54%
    09:00 +12°C° 0 mm 1 mps 611 mmHg 51%
    10:00 +14°C° 0 mm 1 mps 611 mmHg 48%
    11:00 +15°C° 0 mm 1 mps 612 mmHg 45%
    12:00 +16°C° 0 mm 1 mps 612 mmHg 44%
    13:00 +16°C° 0 mm 1 mps 612 mmHg 42%
    14:00 +18°C° 0 mm 1 mps 612 mmHg 41%
    15:00 +17°C° 0 mm 2 mps 612 mmHg 41%
    16:00 +17°C° 0 mm 2 mps 612 mmHg 42%
    17:00 +18°C° 0 mm 2 mps 612 mmHg 42%
    18:00 +17°C° 0 mm 2 mps 612 mmHg 46%
    19:00 +16°C° 0 mm 1 mps 612 mmHg 50%
    20:00 +15°C° 0 mm 1 mps 612 mmHg 54%
    21:00 +15°C° 0 mm 1 mps 612 mmHg 56%
    22:00 +14°C° 0 mm 1 mps 611 mmHg 58%
    23:00 +12°C° 0 mm 0 mps 611 mmHg 61%

    28 March, Thursday

    Time Temperature Precipitation Wind Pressure Humidity
    00:00 +13°C° 0 mm 1 mps 610 mmHg 62%
    01:00 +12°C° 0 mm 1 mps 610 mmHg 63%
    02:00 +11°C° 0 mm 1 mps 609 mmHg 64%
    03:00 +11°C° 0.1 mm 1 mps 609 mmHg 65%
    04:00 +11°C° 0.1 mm 1 mps 609 mmHg 66%
    05:00 +10°C° 0.1 mm 1 mps 609 mmHg 67%
    06:00 +11°C° 0 mm 1 mps 610 mmHg 64%
    07:00 +11°C° 0 mm 1 mps 610 mmHg 62%
    08:00 +12°C° 0 mm 1 mps 611 mmHg 59%
    09:00 +13°C° 0 mm 1 mps 611 mmHg 56%
    10:00 +14°C° 0 mm 1 mps 612 mmHg 53%
    11:00 +15°C° 0 mm 1 mps 612 mmHg 49%
    12:00 +16°C° 0 mm 1 mps 612 mmHg 46%
    13:00 +17°C° 0 mm 2 mps 611 mmHg 42%
    14:00 +18°C° 0 mm 2 mps 611 mmHg 38%
    15:00 +18°C° 0.1 mm 2 mps 611 mmHg 37%
    16:00 +18°C° 0.1 mm 2 mps 611 mmHg 36%
    17:00 +18°C° 0.1 mm 2 mps 611 mmHg 35%
    18:00 +17°C° 0.1 mm 2 mps 611 mmHg 38%
    19:00 +16°C° 0.1 mm 2 mps 611 mmHg 41%
    20:00 +15°C° 0.1 mm 2 mps 611 mmHg 44%
    21:00 +14°C° 0.1 mm 2 mps 610 mmHg 45%
    22:00 +13°C° 0.1 mm 2 mps 610 mmHg 47%
    23:00 +12°C° 0.1 mm 2 mps 610 mmHg 48%
    Show more